N5817F KSEZ-KTUS

Flight info

Callsign N5817F
Flight time N/A
Altitude 15500
Route DIRECT
Aircraft BE58/L-SDFGRY/C

Departure

Time 2026-05-08 21:53
Airport Sedona Airport (KSEZ)

Arrival

Time N/A
Airport Tucson International Airport (KTUS)
Time Latitude Longitude Altitude Speed Heading
2026-05-08 21:41 34.84923 -111.78976 4785 ft 0 kts 317°
2026-05-08 21:49 34.84937 -111.78962 4786 ft 8 kts 79°
2026-05-08 21:49 34.84938 -111.78954 4786 ft 0 kts 88°
2026-05-08 21:50 34.84937 -111.78939 4786 ft 7 kts 108°
2026-05-08 21:50 34.84959 -111.78839 4787 ft 20 kts 47°
2026-05-08 21:50 34.85078 -111.78687 4800 ft 29 kts 45°
2026-05-08 21:51 34.85191 -111.78549 4812 ft 26 kts 45°
2026-05-08 21:51 34.85306 -111.78404 4826 ft 22 kts 45°
2026-05-08 21:51 34.85350 -111.78302 4830 ft 0 kts 132°
2026-05-08 21:52 34.85343 -111.78292 4836 ft 6 kts 132°
2026-05-08 21:52 34.85312 -111.78279 4831 ft 3 kts 217°
2026-05-08 21:52 34.85312 -111.78280 4831 ft 0 kts 224°
2026-05-08 21:52 34.85257 -111.78350 4830 ft 45 kts 226°
2026-05-08 21:53 34.84859 -111.78838 4834 ft 106 kts 226°
2026-05-08 21:53 34.84278 -111.79544 4931 ft 133 kts 225°
2026-05-08 21:53 34.83589 -111.80305 5428 ft 129 kts 222°
2026-05-08 21:53 34.82905 -111.81079 5763 ft 139 kts 223°
2026-05-08 21:54 34.82184 -111.81889 5976 ft 142 kts 224°
2026-05-08 21:54 34.81446 -111.82698 6254 ft 142 kts 225°
2026-05-08 21:54 34.80679 -111.83418 6611 ft 140 kts 205°
2026-05-08 21:54 34.79710 -111.83309 6983 ft 149 kts 159°
2026-05-08 21:55 34.78826 -111.82635 7314 ft 153 kts 139°
2026-05-08 21:55 34.78160 -111.81622 7675 ft 156 kts 131°
2026-05-08 21:55 34.77496 -111.80549 7976 ft 160 kts 130°
2026-05-08 21:56 34.76139 -111.78333 8630 ft 167 kts 129°
2026-05-08 21:56 34.75440 -111.77192 8990 ft 170 kts 129°
2026-05-08 21:56 34.74611 -111.76185 9341 ft 168 kts 148°
2026-05-08 21:56 34.73599 -111.75509 9653 ft 165 kts 160°
2026-05-08 21:57 34.72530 -111.75006 9985 ft 165 kts 165°
2026-05-08 21:57 34.71434 -111.74583 10270 ft 166 kts 167°
2026-05-08 21:57 34.70326 -111.74199 10559 ft 166 kts 168°
2026-05-08 21:57 34.69207 -111.73829 10855 ft 167 kts 168°
2026-05-08 21:58 34.68088 -111.73469 11142 ft 167 kts 169°
2026-05-08 21:58 34.66970 -111.73111 11439 ft 166 kts 168°
2026-05-08 21:58 34.65850 -111.72755 11749 ft 167 kts 168°
2026-05-08 21:58 34.64725 -111.72396 12058 ft 167 kts 168°
2026-05-08 21:59 34.63598 -111.72036 12366 ft 168 kts 168°
2026-05-08 21:59 34.62469 -111.71677 12684 ft 168 kts 167°
2026-05-08 21:59 34.61331 -111.71314 13006 ft 169 kts 168°
2026-05-08 21:59 34.60189 -111.70949 13327 ft 171 kts 167°
2026-05-08 22:00 34.58971 -111.70567 13373 ft 189 kts 168°
2026-05-08 22:00 34.57647 -111.70150 13380 ft 203 kts 168°
2026-05-08 22:00 34.56244 -111.69705 13375 ft 214 kts 167°
2026-05-08 22:00 34.54779 -111.69246 13371 ft 220 kts 167°
2026-05-08 22:01 34.53276 -111.68774 13359 ft 226 kts 167°
2026-05-08 22:01 34.51743 -111.68280 13348 ft 230 kts 167°
2026-05-08 22:01 34.50211 -111.67782 13336 ft 232 kts 167°
2026-05-08 22:01 34.48648 -111.67278 13331 ft 233 kts 167°
2026-05-08 22:02 34.47071 -111.66782 13337 ft 235 kts 166°
2026-05-08 22:02 34.45486 -111.66281 13348 ft 236 kts 167°
2026-05-08 22:02 34.43896 -111.65777 13360 ft 237 kts 166°
2026-05-08 22:02 34.42302 -111.65267 13350 ft 236 kts 166°
2026-05-08 22:03 34.40717 -111.64766 13380 ft 235 kts 167°
2026-05-08 22:03 34.39104 -111.64258 13392 ft 237 kts 166°
2026-05-08 22:03 34.37525 -111.63758 13410 ft 239 kts 166°
2026-05-08 22:03 34.35912 -111.63248 13400 ft 240 kts 166°
2026-05-08 22:04 34.34270 -111.62728 13416 ft 241 kts 166°
2026-05-08 22:04 34.32666 -111.62220 13417 ft 242 kts 166°
2026-05-08 22:04 34.31038 -111.61705 13428 ft 243 kts 166°
2026-05-08 22:04 34.29404 -111.61188 13419 ft 242 kts 166°
2026-05-08 22:05 34.27770 -111.60672 13435 ft 244 kts 165°
2026-05-08 22:05 34.26131 -111.60154 13436 ft 244 kts 166°
2026-05-08 22:05 34.24489 -111.59635 13432 ft 244 kts 166°
2026-05-08 22:05 34.22852 -111.59118 13446 ft 243 kts 166°
2026-05-08 22:06 34.21210 -111.58601 13435 ft 244 kts 166°
2026-05-08 22:06 34.19571 -111.58087 13431 ft 243 kts 166°
2026-05-08 22:06 34.17941 -111.57572 13439 ft 242 kts 166°
2026-05-08 22:06 34.16312 -111.57057 13439 ft 242 kts 165°
2026-05-08 22:07 34.14677 -111.56541 13436 ft 243 kts 165°
2026-05-08 22:07 34.13046 -111.56024 13427 ft 243 kts 165°
2026-05-08 22:07 34.11415 -111.55511 13415 ft 242 kts 165°
2026-05-08 22:07 34.09786 -111.54999 13405 ft 241 kts 165°
2026-05-08 22:08 34.08165 -111.54491 13411 ft 241 kts 165°
2026-05-08 22:08 34.06535 -111.53977 13419 ft 243 kts 164°
2026-05-08 22:08 34.04897 -111.53463 13397 ft 244 kts 165°
2026-05-08 22:08 34.03249 -111.52947 13396 ft 245 kts 164°
2026-05-08 22:09 34.01591 -111.52425 13391 ft 247 kts 165°
2026-05-08 22:09 33.99931 -111.51905 13357 ft 246 kts 165°
2026-05-08 22:09 33.98277 -111.51385 13368 ft 246 kts 164°
2026-05-08 22:09 33.96622 -111.50866 13331 ft 246 kts 164°
2026-05-08 22:10 33.94970 -111.50349 13320 ft 244 kts 164°
2026-05-08 22:10 33.93334 -111.49836 13305 ft 243 kts 164°
2026-05-08 22:10 33.91705 -111.49324 13298 ft 241 kts 164°
2026-05-08 22:10 33.90088 -111.48818 13284 ft 239 kts 165°
2026-05-08 22:11 33.88482 -111.48315 13295 ft 238 kts 164°
2026-05-08 22:11 33.86878 -111.47814 13304 ft 238 kts 164°
2026-05-08 22:11 33.85270 -111.47311 13300 ft 239 kts 164°
2026-05-08 22:11 33.83664 -111.46808 13299 ft 239 kts 164°
2026-05-08 22:12 33.82056 -111.46306 13300 ft 238 kts 164°
2026-05-08 22:12 33.80451 -111.45804 13304 ft 239 kts 164°
2026-05-08 22:12 33.78846 -111.45302 13303 ft 239 kts 164°
2026-05-08 22:12 33.77237 -111.44801 13299 ft 239 kts 164°
2026-05-08 22:13 33.75627 -111.44297 13296 ft 239 kts 163°
2026-05-08 22:13 33.74020 -111.43796 13298 ft 239 kts 164°
2026-05-08 22:13 33.72411 -111.43294 13294 ft 239 kts 164°
2026-05-08 22:13 33.70805 -111.42792 13300 ft 239 kts 164°
2026-05-08 22:14 33.69198 -111.42290 13296 ft 239 kts 163°
2026-05-08 22:14 33.67591 -111.41791 13292 ft 238 kts 163°
2026-05-08 22:14 33.66529 -111.41462 13294 ft 238 kts 163°
2026-05-08 22:14 33.64926 -111.40964 13296 ft 238 kts 163°
2026-05-08 22:15 33.63329 -111.40468 13298 ft 237 kts 163°
2026-05-08 22:15 33.61733 -111.39972 13295 ft 237 kts 163°
2026-05-08 22:15 33.59734 -111.39350 13295 ft 236 kts 163°
2026-05-08 22:15 33.58143 -111.38854 13288 ft 236 kts 163°
2026-05-08 22:16 33.57076 -111.38521 13290 ft 235 kts 162°
2026-05-08 22:16 33.55494 -111.38030 13296 ft 235 kts 163°
2026-05-08 22:16 33.53935 -111.37547 13286 ft 234 kts 163°
2026-05-08 22:16 33.52359 -111.37059 13291 ft 234 kts 162°
2026-05-08 22:17 33.50784 -111.36571 13296 ft 234 kts 163°
2026-05-08 22:17 33.49207 -111.36082 13291 ft 234 kts 163°
2026-05-08 22:17 33.47631 -111.35593 13288 ft 233 kts 162°
2026-05-08 22:17 33.46060 -111.35108 13291 ft 233 kts 163°
2026-05-08 22:18 33.44490 -111.34621 13302 ft 233 kts 162°
2026-05-08 22:18 33.42907 -111.34130 13301 ft 234 kts 163°
2026-05-08 22:18 33.41351 -111.33649 13303 ft 234 kts 163°
2026-05-08 22:18 33.39775 -111.33161 13294 ft 233 kts 163°
2026-05-08 22:19 33.38203 -111.32675 13296 ft 233 kts 163°
2026-05-08 22:19 33.36632 -111.32189 13302 ft 233 kts 163°
2026-05-08 22:19 33.35061 -111.31705 13296 ft 233 kts 163°
2026-05-08 22:19 33.33491 -111.31220 13294 ft 233 kts 163°
2026-05-08 22:20 33.31923 -111.30736 13292 ft 232 kts 162°
2026-05-08 22:20 33.30370 -111.30254 13295 ft 232 kts 162°
2026-05-08 22:20 33.28809 -111.29772 13290 ft 231 kts 163°
2026-05-08 22:20 33.27249 -111.29292 13293 ft 231 kts 163°
2026-05-08 22:21 33.25690 -111.28812 13292 ft 231 kts 162°
2026-05-08 22:21 33.24132 -111.28333 13286 ft 231 kts 163°
2026-05-08 22:21 33.22573 -111.27852 13287 ft 231 kts 163°
2026-05-08 22:21 33.21023 -111.27376 13289 ft 231 kts 163°
2026-05-08 22:22 33.19461 -111.26894 13289 ft 232 kts 162°
2026-05-08 22:22 33.17899 -111.26412 13272 ft 232 kts 162°
2026-05-08 22:22 33.16336 -111.25931 13266 ft 232 kts 162°
2026-05-08 22:22 33.14774 -111.25451 13270 ft 231 kts 163°
2026-05-08 22:23 33.13215 -111.24972 13271 ft 231 kts 163°
2026-05-08 22:23 33.11659 -111.24494 13269 ft 230 kts 163°
2026-05-08 22:23 33.10116 -111.24020 13268 ft 230 kts 163°
2026-05-08 22:23 33.08563 -111.23544 13270 ft 230 kts 163°
2026-05-08 22:24 33.07009 -111.23067 13278 ft 230 kts 163°
2026-05-08 22:24 33.05475 -111.22595 13277 ft 231 kts 163°
2026-05-08 22:24 33.03920 -111.22117 13269 ft 231 kts 163°
2026-05-08 22:24 33.02355 -111.21637 13276 ft 230 kts 163°
2026-05-08 22:25 33.00800 -111.21160 13271 ft 230 kts 162°
2026-05-08 22:25 32.99269 -111.20693 13270 ft 230 kts 163°
2026-05-08 22:25 32.97719 -111.20221 13274 ft 229 kts 163°
2026-05-08 22:25 32.96162 -111.19744 13268 ft 229 kts 163°
2026-05-08 22:26 32.94621 -111.19271 13271 ft 229 kts 163°
2026-05-08 22:26 32.93082 -111.18800 13267 ft 228 kts 163°
2026-05-08 22:26 32.91548 -111.18333 13271 ft 228 kts 163°
2026-05-08 22:26 32.90012 -111.17863 13272 ft 228 kts 163°
2026-05-08 22:27 32.88479 -111.17393 13279 ft 228 kts 163°
2026-05-08 22:27 32.86945 -111.16923 13271 ft 228 kts 162°
2026-05-08 22:27 32.85411 -111.16453 13270 ft 228 kts 163°
2026-05-08 22:27 32.83878 -111.15988 13271 ft 227 kts 163°
2026-05-08 22:28 32.82348 -111.15523 13278 ft 227 kts 163°
2026-05-08 22:28 32.80819 -111.15056 13280 ft 227 kts 162°
2026-05-08 22:28 32.79292 -111.14589 13287 ft 227 kts 162°
2026-05-08 22:28 32.77768 -111.14122 13293 ft 227 kts 162°
2026-05-08 22:29 32.76243 -111.13658 13332 ft 225 kts 162°
2026-05-08 22:29 32.74732 -111.13200 13366 ft 224 kts 163°
2026-05-08 22:29 32.73255 -111.12650 13382 ft 221 kts 148°
2026-05-08 22:29 32.72167 -111.11423 13393 ft 215 kts 124°
2026-05-08 22:30 32.71247 -111.10019 13401 ft 216 kts 124°
2026-05-08 22:30 32.70323 -111.08614 13402 ft 216 kts 125°
2026-05-08 22:30 32.69311 -111.07284 13394 ft 218 kts 131°
2026-05-08 22:30 32.68204 -111.06053 13398 ft 219 kts 134°
2026-05-08 22:31 32.67005 -111.04928 13402 ft 220 kts 140°
2026-05-08 22:31 32.65757 -111.03865 13401 ft 221 kts 141°
2026-05-08 22:31 32.64491 -111.02817 13398 ft 222 kts 141°
2026-05-08 22:31 32.63222 -111.01770 13395 ft 222 kts 141°
2026-05-08 22:32 32.61909 -111.00799 13395 ft 225 kts 154°
2026-05-08 22:32 32.60416 -111.00210 13399 ft 227 kts 160°
2026-05-08 22:32 32.58895 -110.99705 13399 ft 227 kts 162°
2026-05-08 22:32 32.57363 -110.99231 13401 ft 227 kts 163°
2026-05-08 22:33 32.55831 -110.98772 13403 ft 227 kts 162°
2026-05-08 22:33 32.54298 -110.98318 13407 ft 227 kts 163°
2026-05-08 22:33 32.52768 -110.97868 13407 ft 227 kts 162°
2026-05-08 22:33 32.51241 -110.97415 13403 ft 226 kts 163°
2026-05-08 22:34 32.49710 -110.96968 13414 ft 226 kts 163°
2026-05-08 22:34 32.48180 -110.96520 13414 ft 227 kts 163°
2026-05-08 22:34 32.46645 -110.96074 13411 ft 227 kts 163°
2026-05-08 22:34 32.45107 -110.95626 13411 ft 228 kts 163°
2026-05-08 22:35 32.43571 -110.95173 13411 ft 228 kts 163°
2026-05-08 22:35 32.42141 -110.94751 13409 ft 227 kts 163°
2026-05-08 22:35 32.40607 -110.94298 13409 ft 227 kts 163°
2026-05-08 22:35 32.39083 -110.93814 13442 ft 226 kts 156°
2026-05-08 22:36 32.37820 -110.92774 13455 ft 221 kts 134°
2026-05-08 22:36 32.36727 -110.91490 13456 ft 222 kts 131°
2026-05-08 22:36 32.35672 -110.90163 13454 ft 221 kts 129°
2026-05-08 22:36 32.34639 -110.88817 13447 ft 220 kts 129°
2026-05-08 22:37 32.33612 -110.87486 13445 ft 218 kts 129°
2026-05-08 22:37 32.32613 -110.86174 13469 ft 218 kts 129°
2026-05-08 22:37 32.31601 -110.84842 13472 ft 218 kts 128°
2026-05-08 22:37 32.30589 -110.83509 13472 ft 218 kts 129°
2026-05-08 22:38 32.29573 -110.82179 13481 ft 218 kts 129°
2026-05-08 22:38 32.28552 -110.80852 13484 ft 218 kts 129°
2026-05-08 22:38 32.27534 -110.79519 13481 ft 218 kts 129°
2026-05-08 22:38 32.26520 -110.78184 13480 ft 218 kts 129°
2026-05-08 22:39 32.25510 -110.76853 13484 ft 218 kts 129°
2026-05-08 22:39 32.24500 -110.75517 13481 ft 218 kts 129°
2026-05-08 22:39 32.23489 -110.74183 13482 ft 218 kts 129°